Weather History for KHLX - April, 2014

Change the Weather History Date:

Tuesday, April 29, 2014

  Actual Average (KBLF) Record (KBLF)
Temperature  
Mean Temperature 52 °F 59 °F  
Max Temperature 55 °F 69 °F 83 °F (1996)
Min Temperature 50 °F 49 °F 32 °F (1979)
Degree Days  
Heating Degree Days 12 7  
Month to date heating degree days 314  
Since 1 July heating degree days 4423  
Cooling Degree Days 0 1  
Month to date cooling degree days 27  
Year to date cooling degree days 31  
Growing Degree Days 2 (Base 50)    
Moisture  
Dew Point 50 °F    
Average Humidity 89    
Maximum Humidity 94    
Minimum Humidity 82    
Precipitation  
Precipitation 1.06 in 0.12 in 1.36 in (1968)
Month to date precipitation 3.22  
Year to date precipitation 12.39  
Snow  
Snow 0.00 in - - ()
Month to date snowfall  
Since 1 July snowfall  
Snow Depth -    
Sea Level Pressure  
Sea Level Pressure 29.99 in    
Wind  
Wind Speed 5 mph (ESE)    
Max Wind Speed 12 mph    
Max Gust Speed 17 mph    
Visibility 3 miles    
Events Fog , Rain    
T = Trace of Precipitation, MM = Missing Value Source: NWS Daily Summary

Daily Weather History Graph

Daily Weather History Graph

Search for Another Location

Airport or City:

Trip Planner

Search our weather history database for the weather conditions in past years. The results will help you decide how hot, cold, wet, or windy it might be!

Date:

Astronomy

Apr. 29, 2014 Rise Set
Actual Time 6:31 AM EDT 8:10 PM EDT
Civil Twilight 6:04 AM EDT 8:37 PM EDT
Nautical Twilight 5:30 AM EDT 9:11 PM EDT
Astronomical Twilight 4:55 AM EDT 9:46 PM EDT
Moon 6:48 AM EDT (4/29) 8:48 PM EDT (4/29)
Length of Visible Light 14h 33m
Length of Day
13h 38m
New Moon, 0% of the Moon is Illuminated
Apr 29
New Moon
May 6
First Quarter
May 14
Full
May 21
Last Quarter
May 28
New

Hourly Weather History & Observations

Time (EDT) Temp. Dew Point Humidity Pressure Visibility Wind Dir Wind Speed Gust Speed Precip Events Conditions
12:15 AM 53.6 °F 50.0 °F 88% 29.98 in 3.0 mi Calm Calm - N/A   Overcast
12:35 AM 53.6 °F 50.0 °F 88% 29.98 in 2.0 mi Calm Calm - N/A   Overcast
12:55 AM 53.6 °F 50.0 °F 88% 29.97 in 2.0 mi SSE 3.5 mph - N/A   Overcast
1:15 AM 53.6 °F 50.0 °F 88% 29.95 in 1.0 mi Calm Calm - N/A   Overcast
1:35 AM 53.6 °F 50.0 °F 88% 29.94 in 0.5 mi Calm Calm - N/A Fog Fog
1:55 AM 55.4 °F 51.8 °F 88% 29.94 in 0.2 mi South 3.5 mph - N/A Fog Fog
2:15 AM 55.4 °F 51.8 °F 88% 29.96 in 0.2 mi South 6.9 mph - N/A Fog Fog
2:35 AM 55.4 °F 51.8 °F 88% 29.96 in 0.2 mi SSW 8.1 mph - N/A Fog Fog
2:55 AM 53.6 °F 51.8 °F 94% 29.93 in 0.2 mi SE 8.1 mph - 0.01 in Rain Light Rain
3:15 AM 53.6 °F 51.8 °F 94% 29.94 in 0.2 mi SSW 3.5 mph - 0.01 in Rain Light Rain
3:35 AM 53.6 °F 51.8 °F 94% 29.95 in 0.8 mi Calm Calm - 0.07 in Rain Rain
3:55 AM 53.6 °F 51.8 °F 94% 29.95 in 2.0 mi Calm Calm - 0.05 in Rain Rain
4:15 AM 53.6 °F 50.0 °F 88% 29.96 in 0.8 mi Calm Calm - 0.21 in Rain Heavy Rain
4:40 AM 53.6 °F 50.0 °F 88% 29.94 in - ESE 9.2 mph - 0.02 in   Unknown
4:55 AM 53.6 °F 50.0 °F 88% 29.92 in 10.0 mi East 10.4 mph - 0.04 in Rain Rain
5:15 AM 51.8 °F 48.2 °F 88% 29.93 in 7.0 mi SE 4.6 mph - 0.13 in Rain Rain
5:35 AM 53.6 °F 50.0 °F 88% 29.93 in 10.0 mi ESE 8.1 mph - 0.21 in Rain Rain
5:55 AM 53.6 °F 50.0 °F 88% 29.94 in 3.0 mi ESE 6.9 mph - 0.09 in Rain Heavy Rain
6:15 AM 53.6 °F 51.8 °F 94% 29.94 in 4.0 mi SE 8.1 mph - 0.17 in Rain Rain
6:35 AM 53.6 °F 50.0 °F 88% 29.92 in 10.0 mi ESE 11.5 mph 17.3 mph 0.21 in Rain Rain
6:55 AM 53.6 °F 51.8 °F 94% 29.94 in 10.0 mi SE 6.9 mph - 0.03 in Rain Rain
7:15 AM 53.6 °F 50.0 °F 88% 29.96 in 10.0 mi SE 6.9 mph - 0.07 in Rain Light Rain
7:35 AM 51.8 °F 48.2 °F 88% 29.94 in 10.0 mi ESE 11.5 mph 16.1 mph 0.16 in Rain Light Rain
7:55 AM 51.8 °F 48.2 °F 88% 29.95 in 5.0 mi SE 5.8 mph 16.1 mph 0.02 in Rain Rain
8:15 AM 51.8 °F 48.2 °F 88% 29.97 in 1.8 mi SE 3.5 mph - 0.03 in   Overcast
8:35 AM 51.8 °F 48.2 °F 88% 29.96 in 0.8 mi ESE 4.6 mph - N/A Rain Light Rain
8:55 AM 51.8 °F 48.2 °F 88% 29.95 in 0.5 mi ESE 9.2 mph - 0.04 in Rain Rain
9:15 AM 51.8 °F 48.2 °F 88% 29.96 in 4.0 mi SE 5.8 mph - 0.12 in Rain Rain
9:35 AM 51.8 °F 48.2 °F 88% 29.97 in 10.0 mi SE 6.9 mph - 0.14 in Rain Rain
9:55 AM 51.8 °F 48.2 °F 88% 29.97 in 7.0 mi SE 4.6 mph - N/A Rain Light Rain
10:15 AM 51.8 °F 48.2 °F 88% 29.97 in 10.0 mi ESE 9.2 mph - 0.01 in   Overcast
10:35 AM 51.8 °F 48.2 °F 88% 29.98 in 10.0 mi SE 6.9 mph - 0.01 in   Overcast
10:55 AM 51.8 °F 48.2 °F 88% 29.99 in 5.0 mi SSE 4.6 mph - N/A Rain Light Rain
11:15 AM 51.8 °F 48.2 °F 88% 29.99 in 7.0 mi ESE 5.8 mph - N/A   Light Drizzle
11:35 AM 51.8 °F 48.2 °F 88% 30.00 in 4.0 mi SE 5.8 mph - N/A Rain Rain
11:55 AM 51.8 °F 48.2 °F 88% 30.00 in 7.0 mi SE 4.6 mph - N/A   Overcast
12:15 PM 51.8 °F 48.2 °F 88% 30.00 in 4.0 mi ESE 9.2 mph - N/A   Overcast
12:35 PM 51.8 °F 48.2 °F 88% 30.01 in 1.8 mi ESE 8.1 mph - N/A   Light Drizzle
12:55 PM 51.8 °F 48.2 °F 88% 30.01 in 2.5 mi ESE 8.1 mph - N/A   Overcast
1:15 PM 51.8 °F 48.2 °F 88% 30.00 in 3.0 mi East 5.8 mph - N/A   Overcast
1:35 PM 51.8 °F 46.4 °F 82% 30.00 in 1.8 mi NE 5.8 mph - N/A   Overcast
1:55 PM 50.0 °F 46.4 °F 87% 30.00 in 1.5 mi ENE 6.9 mph - N/A   Overcast
2:15 PM 50.0 °F 46.4 °F 87% 29.99 in 0.8 mi East 6.9 mph - N/A   Overcast
2:35 PM 51.8 °F 46.4 °F 82% 29.99 in 0.5 mi East 8.1 mph - N/A Fog Fog
2:55 PM 51.8 °F 48.2 °F 88% 29.99 in 0.2 mi ESE 4.6 mph - N/A Fog Fog
3:15 PM 51.8 °F 48.2 °F 88% 30.00 in 0.2 mi East 9.2 mph - N/A Fog Fog
3:35 PM 53.6 °F 50.0 °F 88% 30.00 in 0.2 mi ESE 5.8 mph - N/A Fog Fog
3:55 PM 53.6 °F 50.0 °F 88% 30.00 in 0.2 mi SE 4.6 mph - N/A Fog Fog
4:15 PM 53.6 °F 50.0 °F 88% 30.01 in 0.5 mi SE 5.8 mph - N/A Fog Fog
4:35 PM 53.6 °F 50.0 °F 88% 30.01 in 0.2 mi SE 3.5 mph - N/A Fog Fog
4:55 PM 53.6 °F 50.0 °F 88% 30.02 in 1.2 mi SSE 3.5 mph - N/A   Overcast
5:15 PM 53.6 °F 51.8 °F 94% 30.02 in 1.2 mi Calm Calm - N/A Rain Light Rain
5:35 PM 55.4 °F 51.8 °F 88% 30.01 in 1.8 mi Calm Calm - N/A   Overcast
5:55 PM 55.4 °F 51.8 °F 88% 30.01 in 0.8 mi East 4.6 mph - N/A   Overcast
6:35 PM 55.4 °F 51.8 °F 88% 30.00 in 0.5 mi East 4.6 mph - N/A Fog Fog
6:55 PM 55.4 °F 51.8 °F 88% 29.99 in 1.8 mi East 4.6 mph - N/A   Overcast
7:15 PM 55.4 °F 51.8 °F 88% 30.00 in 0.2 mi ESE 5.8 mph - N/A Fog Fog
7:35 PM 55.4 °F 51.8 °F 88% 30.01 in 0.5 mi ESE 3.5 mph - N/A Fog Fog
7:55 PM 55.4 °F 51.8 °F 88% 30.01 in 1.0 mi ESE 6.9 mph - N/A   Overcast
8:15 PM 55.4 °F 51.8 °F 88% 30.02 in 0.5 mi SE 5.8 mph - N/A Fog Fog
8:35 PM 53.6 °F 51.8 °F 94% 30.03 in 0.5 mi SE 6.9 mph - N/A Fog Fog
8:55 PM 53.6 °F 50.0 °F 88% 30.04 in 0.2 mi SE 3.5 mph - N/A Fog Fog
9:15 PM 53.6 °F 50.0 °F 88% 30.04 in 0.5 mi ESE 5.8 mph - N/A Fog Fog
9:35 PM 53.6 °F 50.0 °F 88% 30.05 in 0.8 mi East 4.6 mph - N/A   Overcast
10:35 PM 55.4 °F 51.8 °F 88% 30.06 in 0.2 mi ESE 8.1 mph - N/A Fog Fog
10:55 PM 53.6 °F 51.8 °F 94% 30.07 in 0.2 mi East 8.1 mph - N/A Fog Fog
11:15 PM 53.6 °F 51.8 °F 94% 30.06 in 0.2 mi East 9.2 mph - N/A Fog Fog
11:35 PM 53.6 °F 51.8 °F 94% 30.07 in 0.5 mi ESE 8.1 mph - N/A Fog Fog
11:55 PM 53.6 °F 50.0 °F 88% 30.07 in 0.2 mi East 3.5 mph - N/A Fog Fog